Andrews, NC

10:01 PM EDT on May 27, 2017 (GMT -0400)
Andrews

Weather History for KRHP - February, 2013

Change the Weather History Date:

Wednesday, February 20, 2013

  Actual Average (KMMI) Record (KMMI)
Temperature  
Mean Temperature 32 °F -  
Max Temperature 46 °F 54 °F 71 °F (2014)
Min Temperature 19 °F 29 °F 3 °F (2015)
Degree Days  
Heating Degree Days 32    
Moisture  
Dew Point 13 °F    
Average Humidity 55    
Maximum Humidity 93    
Minimum Humidity 12    
Precipitation  
Precipitation 0.00 in - - ()
Sea Level Pressure  
Sea Level Pressure 30.13 in    
Wind  
Wind Speed 2 mph (SE)    
Max Wind Speed 12 mph    
Max Gust Speed -    
Visibility 10 miles    
Events      
Averages and records for this station are not official NWS values.
T = Trace of Precipitation, MM = Missing Value Source: NWS Daily Summary

Daily Weather History Graph

Daily Weather History Graph

Search for Another Location

Airport or City:

Trip Planner

Search our weather history database for the weather conditions in past years. The results will help you decide how hot, cold, wet, or windy it might be!

Date:

Astronomy

Feb. 20, 2013 Rise Set
Actual Time 7:15 AM EST 6:22 PM EST
Civil Twilight 6:50 AM EST 6:48 PM EST
Nautical Twilight 6:20 AM EST 7:18 PM EST
Astronomical Twilight 5:51 AM EST 7:47 PM EST
Moon 1:50 PM EST (2/20) 3:28 AM EST (2/20)
Length of Visible Light 11h 58m
Length of Day
11h 07m
Waxing Gibbous, 76% of the Moon is Illuminated
Feb 20
Waxing Gibbous
Feb 25
Full
Mar 4
Last Quarter
Mar 11
New
Mar 19
First Quarter

Hourly Weather History & Observations

Time (EST) Temp. Windchill Dew Point Humidity Pressure Visibility Wind Dir Wind Speed Gust Speed Precip Events Conditions
12:15 AM 27.9 °F - 21.9 °F 78% 30.14 in 10.0 mi Calm Calm - N/A   Clear
12:35 AM 27.5 °F - 21.7 °F 79% 30.13 in 10.0 mi Calm Calm - N/A   Clear
1:15 AM 28.9 °F - 18.7 °F 66% 30.13 in 10.0 mi Calm Calm - N/A   Clear
1:35 AM 30.9 °F 27.5 °F 16.2 °F 54% 30.13 in 10.0 mi NE 3.5 mph - N/A   Clear
1:55 AM 29.3 °F 22.3 °F 17.1 °F 60% 30.14 in 10.0 mi North 6.9 mph - N/A   Clear
2:15 AM 27.5 °F - 17.6 °F 66% 30.14 in 10.0 mi Calm Calm - N/A   Clear
2:35 AM 26.6 °F - 18.5 °F 71% 30.14 in 10.0 mi Calm Calm - N/A   Clear
2:55 AM 26.6 °F - 19.0 °F 73% 30.14 in 10.0 mi Calm Calm - N/A   Clear
3:15 AM 25.0 °F - 19.2 °F 79% 30.14 in 10.0 mi Calm Calm - N/A   Clear
3:35 AM 24.1 °F - 19.6 °F 83% 30.14 in 10.0 mi Calm Calm - N/A   Clear
3:55 AM 23.9 °F - 19.4 °F 83% 30.14 in 10.0 mi Calm Calm - N/A   Clear
4:15 AM 22.8 °F - 18.9 °F 85% 30.13 in 10.0 mi Calm Calm - N/A   Clear
4:35 AM 23.2 °F - 19.2 °F 85% 30.13 in 10.0 mi Calm Calm - N/A   Clear
4:55 AM 23.0 °F - 18.9 °F 84% 30.13 in 10.0 mi Calm Calm - N/A   Clear
5:15 AM 21.6 °F - 18.5 °F 88% 30.13 in 10.0 mi Calm Calm - N/A   Clear
5:35 AM 22.3 °F - 18.9 °F 87% 30.14 in 10.0 mi Calm Calm - N/A   Clear
5:55 AM 20.3 °F - 17.6 °F 89% 30.14 in 10.0 mi Calm Calm - N/A   Clear
6:15 AM 20.7 °F - 18.1 °F 90% 30.14 in 10.0 mi Calm Calm - N/A   Clear
6:35 AM 19.8 °F - 16.7 °F 88% 30.13 in 10.0 mi Calm Calm - N/A   Clear
7:15 AM 19.6 °F 13.0 °F 17.4 °F 91% 30.13 in 10.0 mi West 4.6 mph - N/A   Clear
7:35 AM 20.1 °F 13.6 °F 18.3 °F 93% 30.14 in 10.0 mi West 4.6 mph - N/A   Clear
7:55 AM 20.7 °F - 18.7 °F 92% 30.15 in 10.0 mi Calm Calm - N/A   Clear
8:15 AM 23.4 °F 18.9 °F 20.5 °F 89% 30.16 in 10.0 mi West 3.5 mph - N/A   Clear
8:35 AM 25.7 °F - 19.9 °F 79% 30.17 in 10.0 mi Calm Calm - N/A   Clear
9:15 AM 30.6 °F - 19.9 °F 65% 30.16 in 10.0 mi Calm Calm - N/A   Clear
9:35 AM 33.6 °F - 17.6 °F 52% 30.16 in 10.0 mi Calm Calm - N/A   Clear
10:15 AM 39.4 °F 37.2 °F 4.6 °F 24% 30.16 in 10.0 mi East 3.5 mph - N/A   Clear
10:35 AM 41.2 °F 36.6 °F 4.1 °F 21% 30.15 in 10.0 mi ESE 6.9 mph - N/A   Clear
10:55 AM 41.5 °F - 0.9 °F 18% 30.16 in 10.0 mi Calm Calm - N/A   Clear
11:15 AM 43.0 °F 36.8 °F 3.7 °F 20% 30.15 in 10.0 mi East 11.5 mph - N/A   Clear
11:35 AM 44.6 °F 40.2 °F -0.0 °F 16% 30.14 in 10.0 mi East 8.1 mph - N/A   Clear
11:55 AM 45.0 °F 41.8 °F 0.3 °F 16% 30.14 in 10.0 mi NE 5.8 mph - N/A   Clear
12:15 PM 45.5 °F 41.3 °F 0.7 °F 16% 30.14 in 10.0 mi East 8.1 mph - N/A   Clear
12:35 PM 46.0 °F 42.5 °F -2.6 °F 13% 30.13 in 10.0 mi ENE 6.9 mph - N/A   Clear
12:55 PM 44.6 °F 39.7 °F -0.4 °F 15% 30.12 in 10.0 mi ENE 9.2 mph - N/A   Clear
1:15 PM 44.2 °F 40.3 °F -4.5 °F 13% 30.11 in 10.0 mi ENE 6.9 mph - N/A   Clear
1:35 PM 45.1 °F 41.4 °F -5.1 °F 12% 30.10 in 10.0 mi East 6.9 mph - N/A   Clear
1:55 PM 45.7 °F 42.0 °F -2.0 °F 14% 30.10 in 10.0 mi ESE 6.9 mph - N/A   Clear
2:15 PM 45.9 °F 42.9 °F -2.2 °F 14% 30.10 in 10.0 mi ESE 5.8 mph - N/A   Clear
2:35 PM 46.4 °F 44.3 °F 0.3 °F 15% 30.10 in 10.0 mi ESE 4.6 mph - N/A   Clear
2:55 PM 45.9 °F 43.6 °F -2.6 °F 13% 30.09 in 10.0 mi ESE 4.6 mph - N/A   Clear
3:15 PM 46.4 °F 44.3 °F 0.5 °F 15% 30.09 in 10.0 mi ESE 4.6 mph - N/A   Scattered Clouds
3:35 PM 46.6 °F - 1.8 °F 16% 30.10 in 10.0 mi Calm Calm - N/A   Clear
3:55 PM 45.1 °F 39.9 °F 12.0 °F 26% 30.11 in 10.0 mi SW 10.4 mph - N/A   Clear
4:15 PM 42.6 °F 37.2 °F 11.5 °F 28% 30.11 in 10.0 mi WSW 9.2 mph - N/A   Scattered Clouds
4:35 PM 42.3 °F 38.6 °F 13.3 °F 31% 30.11 in 10.0 mi WSW 5.8 mph - N/A   Scattered Clouds
4:55 PM 41.9 °F 35.9 °F 15.8 °F 35% 30.12 in 10.0 mi West 10.4 mph - N/A   Clear
5:15 PM 40.5 °F 33.6 °F 14.4 °F 35% 30.14 in 10.0 mi West 11.5 mph - N/A   Clear
5:35 PM 39.2 °F 34.2 °F 15.6 °F 38% 30.14 in 10.0 mi West 6.9 mph - N/A   Clear
5:55 PM 38.3 °F 33.9 °F 16.0 °F 40% 30.13 in 10.0 mi West 5.8 mph - N/A   Clear
6:15 PM 37.2 °F 32.6 °F 18.9 °F 48% 30.12 in 10.0 mi West 5.8 mph - N/A   Clear
6:35 PM 36.7 °F 30.5 °F 15.1 °F 41% 30.13 in 10.0 mi West 8.1 mph - N/A   Clear
6:55 PM 34.5 °F 30.4 °F 17.2 °F 49% 30.13 in 10.0 mi West 4.6 mph - N/A   Clear
7:15 PM 33.1 °F - 16.2 °F 50% 30.13 in 10.0 mi Calm Calm - N/A   Clear
7:35 PM 32.0 °F - 16.9 °F 54% 30.12 in 10.0 mi Calm Calm - N/A   Clear
7:55 PM 31.3 °F - 16.9 °F 55% 30.13 in 10.0 mi Calm Calm - N/A   Clear
8:15 PM 30.4 °F - 16.0 °F 55% 30.14 in 10.0 mi Calm Calm - N/A   Clear
8:35 PM 27.0 °F - 18.7 °F 71% 30.13 in 10.0 mi Calm Calm - N/A   Clear
8:55 PM 27.0 °F - 18.7 °F 71% 30.13 in 10.0 mi Calm Calm - N/A   Clear
9:15 PM 27.3 °F - 18.9 °F 70% 30.13 in 10.0 mi Calm Calm - N/A   Clear
9:35 PM 25.9 °F - 18.1 °F 73% 30.14 in 10.0 mi Calm Calm - N/A   Clear
10:15 PM 27.5 °F - 17.4 °F 66% 30.14 in 10.0 mi Calm Calm - N/A   Clear
10:35 PM 25.5 °F - 20.3 °F 81% 30.14 in 10.0 mi Calm Calm - N/A   Clear
10:55 PM 25.2 °F - 19.9 °F 81% 30.14 in 10.0 mi Calm Calm - N/A   Clear
11:15 PM 25.0 °F - 19.4 °F 79% 30.13 in 10.0 mi Calm Calm - N/A   Clear
11:35 PM 25.0 °F 20.7 °F 19.2 °F 79% 30.13 in 10.0 mi WSW 3.5 mph - N/A   Clear
11:55 PM 24.3 °F - 19.9 °F 84% 30.13 in 10.0 mi Calm Calm - N/A   Clear